Flag for U.S.A. Weather past 2 weeks in Vallejo, California, U.S.A.

Now
56 °F

Passing clouds.


Feels Like: 56 °F
Forecast: 59 / 82 °F
Wind: 3 mph from West

Location: Napa County Airport

Current Time: Jul 30, 2014 at 4:47:03 AM

Latest Report: Jul 30, 2014 at 3:54 AM


Visibility: 10 mi

Pressure: 29.94 "Hg

Humidity: 93%

Dew point: 54 °F

Location of VallejoLocation

Historic Weather in Vallejo — Graph

°F

Vallejo temperature yesterday

Maximum temperature yesterday: 83 °F (at 3:54 PM)
Minimum temperature yesterday: 53 °F (at 5:54 AM)
Average temperature yesterday: 66 °F

Past Weeks' High & Low Weather Summary

 TemperatureHumidityPressure
High95 °F (Jul 25, 2:54 PM)100% (Jul 20, 3:54 AM)30.10 "Hg (Jul 20, 3:54 AM)
Low50 °F (Jul 24, 5:54 AM)16% (Jul 25, 2:54 PM)29.78 "Hg (Jul 25, 4:54 PM)
Average67 °F75%29.94 "Hg
* Reported Jul 15 3:54 AM — Jul 30 3:54 AM, Vallejo, Weather by CustomWeather, © 2014

Note: Actual official high and low records may vary slightly from our data, if they occured in-between our weather recording intervals... More about our weather records

Advertising

Vallejo weather history for previous 24 hours

 ConditionsComfort  
Time TempWeatherWind HumidityBarometerVisibility
3:54 AM
Jul 30
56 °FPassing clouds.3 mph93%29.94 "Hg10 mi
2:54 AM57 °FClear.6 mph96%29.94 "Hg10 mi
1:54 AM57 °FClear.6 mph93%29.94 "Hg10 mi
12:54 AM59 °FClear.5 mph90%29.95 "Hg10 mi
11:54 PM
Jul 29
59 °FClear.7 mph90%29.96 "Hg10 mi
10:54 PM62 °FClear.9 mph83%29.95 "Hg10 mi
9:54 PM64 °FClear.13 mph84%29.95 "Hg10 mi
8:54 PM65 °FSunny.9 mph85%29.94 "Hg10 mi
7:54 PM68 °FSunny.9 mph76%29.93 "Hg10 mi
6:54 PM74 °FSunny.10 mph60%29.92 "Hg10 mi
5:54 PM76 °FSunny.15 mph56%29.92 "Hg10 mi
4:54 PM80 °FSunny.14 mph47%29.93 "Hg10 mi
3:54 PM83 °FSunny.10 mph43%29.94 "Hg10 mi
2:54 PM82 °FSunny.12 mph43%29.96 "Hg10 mi
1:54 PM81 °FSunny.10 mph42%29.98 "Hg10 mi
12:54 PM78 °FSunny.10 mph50%30.00 "Hg10 mi
11:54 AM74 °FSunny.9 mph60%30.01 "Hg10 mi
10:54 AM71 °FSunny.8 mph55%30.01 "Hg10 mi
9:54 AM66 °FSunny.6 mph70%30.02 "Hg10 mi
8:54 AM63 °FSunny.5 mph75%30.02 "Hg10 mi
7:54 AM58 °FSunny.5 mph90%30.03 "Hg10 mi
6:54 AM54 °FPassing clouds.No wind100%30.02 "Hg10 mi
5:54 AM53 °FClear.No wind100%30.02 "Hg10 mi
4:54 AM55 °FClear.6 mph96%30.02 "Hg10 mi
Weather by CustomWeather, © 2014

See weather overviewHow to use our weather pages